DMSP 5D-3 F16 (USA 172) 1 28054U 03048A 26255.32481639 .00000026 00000+0 37239-4 0 9995 2 28054 98.9867 279.7191 0005963 258.6605 228.5812 14.14490226181808 METEOSAT-9 (MSG-2) 1 28912U 05049B 26255.08946080 .00000113 00000+0 00000+0 0 9998 2 28912 9.5547 53.2842 0001892 347.3065 28.4077 1.00273600 7875 DMSP 5D-3 F17 (USA 191) 1 29522U 06050A 26255.28570597 .00000082 00000+0 64575-4 0 9994 2 29522 98.7424 260.0907 0010368 161.0634 199.0927 14.15006865 24749 FENGYUN 3A 1 32958U 08026A 26255.79880480 .00000050 00000+0 44458-4 0 9990 2 32958 98.6929 195.0081 0007737 231.8651 128.1828 14.19586461947832 EWS-G3 (GOES 14) 1 35491U 09033A 26255.19761270 -.00000153 00000+0 00000+0 0 9998 2 35491 1.9087 81.8185 0002116 90.4315 335.1427 1.00071611 7461 DMSP 5D-3 F18 (USA 210) 1 35951U 09057A 26255.26176909 .00000155 00000+0 10305-3 0 9996 2 35951 98.9142 235.8825 0011351 9.9269 350.2126 14.14940188871901 EWS-G2 (GOES 15) 1 36411U 10008A 26255.16425447 .00000008 00000+0 00000+0 0 9993 2 36411 1.5126 81.8555 0005151 80.3249 311.4374 1.00271451 60518 FENGYUN 3B 1 37214U 10059A 26255.35730589 -.00000040 00000+0 25478-5 0 9997 2 37214 98.9546 301.7081 0021199 301.3279 116.5734 14.14855921819754 SUOMI NPP 1 37849U 11061A 26255.31988339 .00000037 00000+0 38368-4 0 9995 2 37849 98.7999 195.6160 0002842 78.9632 281.1864 14.19532677770800 METEOSAT-10 (MSG-3) 1 38552U 12035B 26255.29425505 -.00000019 00000+0 00000+0 0 9995 2 38552 4.8739 60.5319 0000820 104.3128 292.4627 1.00270691 51733 METOP-B 1 38771U 12049A 26255.26269997 .00000061 00000+0 47748-4 0 9992 2 38771 98.6421 304.9895 0003457 95.3514 264.8058 14.21458567725631 INSAT-3D 1 39216U 13038B 26255.24858150 -.00000352 00000+0 00000+0 0 9998 2 39216 2.1447 81.3476 0001299 111.6066 17.3162 1.00272935 47956 FENGYUN 3C 1 39260U 13052A 26255.32519192 .00000046 00000+0 44415-4 0 9994 2 39260 98.5095 225.2420 0015485 129.5254 230.7293 14.15771155670899 METEOR-M 2 1 40069U 14037A 26255.28781523 -.00000019 00000+0 10446-4 0 9999 2 40069 98.5219 227.9848 0006421 134.1297 226.0410 14.21482505631697 HIMAWARI-8 1 40267U 14060A 26255.25083485 -.00000290 00000+0 00000+0 0 9995 2 40267 0.0198 64.3192 0001164 135.2987 22.6227 1.00272112 43634 FENGYUN 2G 1 40367U 14090A 26255.02888054 -.00000315 00000+0 00000+0 0 9997 2 40367 5.8530 71.7256 0003991 186.8963 202.5503 1.00274569 42876 METEOSAT-11 (MSG-4) 1 40732U 15034A 26255.22474807 .00000049 00000+0 00000+0 0 9994 2 40732 3.4138 70.4786 0000644 71.3872 299.5187 1.00272237 8093 ELEKTRO-L 2 1 41105U 15074A 26255.29139502 -.00000129 00000+0 00000+0 0 9990 2 41105 6.9079 69.4189 0001848 196.4029 175.8604 1.00272019 39389 SENTINEL-3A 1 41335U 16011A 26255.31784018 .00000058 00000+0 41947-4 0 9998 2 41335 98.6288 321.4373 0001090 105.8936 254.2365 14.26734218550481 INSAT-3DR 1 41752U 16054A 26255.14747362 -.00000092 00000+0 00000+0 0 9999 2 41752 0.0257 109.2023 0011669 155.5973 213.4660 1.00272231 36694 HIMAWARI-9 1 41836U 16064A 26255.25083485 -.00000289 00000+0 00000+0 0 9992 2 41836 0.0326 275.6370 0001068 279.1967 27.4736 1.00274744 36086 GOES 16 1 41866U 16071A 26255.26364412 -.00000106 00000+0 00000+0 0 9994 2 41866 0.5508 84.5800 0001695 131.1654 125.7660 1.00272465 35970 FENGYUN 4A 1 41882U 16077A 26255.31860848 -.00000371 00000+0 00000+0 0 9992 2 41882 2.5376 79.1736 0008227 167.1045 342.9245 1.00267736 35801 CYGFM05 1 41884U 16078A 26254.78081886 .00023824 00000+0 27992-3 0 9992 2 41884 34.9565 45.5674 0005559 265.2157 94.7933 15.60430546542271 CYGFM04 1 41885U 16078B 26254.64081952 .00032966 00000+0 30367-3 0 9999 2 41885 34.9322 9.3165 0004209 315.5872 44.4517 15.66557970542547 CYGFM02 1 41886U 16078C 26255.33614868 .00040943 00000+0 30966-3 0 9994 2 41886 34.9405 356.1431 0004578 333.8431 26.2066 15.71292824542853 CYGFM01 1 41887U 16078D 26254.79192425 .00025129 00000+0 28589-3 0 9991 2 41887 34.9394 45.7863 0005201 260.8913 99.1224 15.61258769542235 CYGFM08 1 41888U 16078E 26254.71243397 .00030067 00000+0 29921-3 0 9997 2 41888 34.9435 23.3253 0006050 294.1036 65.9057 15.64636744542518 CYGFM07 1 41890U 16078G 26254.66565031 .00030047 00000+0 29769-3 0 9994 2 41890 34.9448 11.8968 0004770 311.0386 48.9928 15.64757094542536 CYGFM03 1 41891U 16078H 26255.33926830 .00028034 00000+0 27768-3 0 9998 2 41891 34.9406 9.2992 0004128 301.9018 58.1307 15.64775707542610 FENGYUN 3D 1 43010U 17072A 26255.25372789 .00000171 00000+0 10285-3 0 9995 2 43010 99.0229 231.2916 0001955 127.6013 232.5340 14.19755379457348 NOAA 20 (JPSS-1) 1 43013U 17073A 26255.26303691 .00000022 00000+0 31247-4 0 9993 2 43013 98.7811 193.9650 0001602 52.9174 307.2148 14.19525446456828 GOES 17 1 43226U 18022A 26255.27648829 -.00000197 00000+0 00000+0 0 9992 2 43226 1.1557 84.2448 0000830 130.2329 146.8528 1.00272393 31295 SENTINEL-3B 1 43437U 18039A 26255.22084902 .00000060 00000+0 42925-4 0 9990 2 43437 98.6285 321.4913 0001423 79.0702 281.0639 14.26736755436535 FENGYUN 2H 1 43491U 18050A 26255.16737448 -.00000143 00000+0 00000+0 0 9992 2 43491 3.2491 77.9814 0002727 152.1786 260.5858 1.00271983 30318 METOP-C 1 43689U 18087A 26255.20772340 .00000062 00000+0 48077-4 0 9996 2 43689 98.6958 313.2167 0000546 53.1367 306.9861 14.21509908407193 GEO-KOMPSAT-2A 1 43823U 18100A 26254.96327359 -.00000359 00000+0 00000+0 0 9999 2 43823 0.0353 17.3458 0001819 99.0791 349.5888 1.00274303 28505 METEOR-M2 2 1 44387U 19038A 26255.27905326 -.00000002 00000+0 19033-4 0 9993 2 44387 98.9232 243.8869 0002171 104.1716 255.9704 14.24385496373698 FENGYUN 3E 1 49008U 21062A 26255.29862343 -.00000315 00000+0 -12780-3 0 9990 2 49008 98.7539 257.7545 0001543 154.2497 205.8756 14.19909436268942 GOES 18 1 51850U 22021A 26255.19588793 .00000081 00000+0 00000+0 0 9993 2 51850 0.0349 307.2029 0000501 281.7630 55.7687 1.00273362 7462 NOAA 21 (JPSS-2) 1 54234U 22150A 26255.29439612 .00000027 00000+0 33491-4 0 9996 2 54234 98.7094 192.6293 0001221 347.2187 12.8958 14.19548890198906 METEOSAT-12 (MTG-I1) 1 54743U 22170C 26255.29416838 -.00000023 00000+0 00000+0 0 9990 2 54743 0.7778 26.1406 0003751 86.6528 343.9511 1.00271071 13856 TIANMU-1 03 1 55973U 23039A 26255.29231490 .00012340 00000+0 22545-3 0 9996 2 55973 97.5261 72.8505 0003534 123.0109 237.1482 15.49540729194310 TIANMU-1 04 1 55974U 23039B 26255.31039390 .00013491 00000+0 24040-3 0 9995 2 55974 97.5194 72.0366 0004720 119.7782 240.3940 15.50224754194336 TIANMU-1 05 1 55975U 23039C 26255.27754931 .00011792 00000+0 21621-3 0 9990 2 55975 97.5244 72.4189 0003340 139.0225 221.1277 15.49452265194297 TIANMU-1 06 1 55976U 23039D 26255.31996146 .00012296 00000+0 22033-3 0 9990 2 55976 97.5245 73.1895 0003510 131.2684 228.8869 15.50095802194331 FENGYUN 3G 1 56232U 23055A 26255.28619053 .00020899 00000+0 32799-3 0 9997 2 56232 49.9909 256.9273 0011934 20.9245 339.2208 15.53510825193548 METEOR-M2 3 1 57166U 23091A 26255.29375787 -.00000004 00000+0 17201-4 0 9997 2 57166 98.6000 308.4526 0002785 279.2318 80.8546 14.24052364166917 TIANMU-1 07 1 57399U 23101A 26255.33123066 .00004225 00000+0 14501-3 0 9990 2 57399 97.2512 304.0127 0003006 149.7867 210.3549 15.30675598174970 TIANMU-1 08 1 57400U 23101B 26255.29778507 .00004174 00000+0 14329-3 0 9995 2 57400 97.2501 303.7379 0004552 149.2306 210.9203 15.30673765174962 TIANMU-1 09 1 57401U 23101C 26255.34543874 .00004372 00000+0 15004-3 0 9990 2 57401 97.2460 303.1543 0003653 159.8302 200.3084 15.30656423174971 TIANMU-1 10 1 57402U 23101D 26255.24773060 .00004298 00000+0 14732-3 0 9996 2 57402 97.2539 304.2015 0004836 164.0391 196.1003 15.30708249174950 FENGYUN 3F 1 57490U 23111A 26255.28032995 .00000027 00000+0 32939-4 0 9999 2 57490 98.6762 323.6334 0001131 115.8480 244.2813 14.19950781161223 ARKTIKA-M 2 1 58584U 23198A 26230.07438780 .00000056 00000+0 00000+0 0 9992 2 58584 63.2129 147.3319 6901614 267.6403 18.7125 2.00593343 19562 TIANMU-1 11 1 58645U 23205A 26255.31732778 .00003708 00000+0 13931-3 0 9995 2 58645 97.3429 275.5466 0010228 62.3766 297.8511 15.27752181150820 TIANMU-1 12 1 58646U 23205B 26255.30222215 .00004048 00000+0 15340-3 0 9999 2 58646 97.3420 275.2417 0008783 51.0478 309.1543 15.27424482150803 TIANMU-1 13 1 58647U 23205C 26255.33400519 .00003823 00000+0 14513-3 0 9999 2 58647 97.3446 275.5780 0007043 36.5830 323.5889 15.27415048150807 TIANMU-1 14 1 58648U 23205D 26255.31715435 .00004029 00000+0 15267-3 0 9990 2 58648 97.3384 274.6750 0007917 39.6646 320.5171 15.27437560150809 TIANMU-1 19 1 58660U 23208A 26255.27786854 .00005977 00000+0 19140-3 0 9992 2 58660 97.4577 12.1312 0005030 23.2350 336.9118 15.32761982150662 TIANMU-1 20 1 58661U 23208B 26255.31330167 .00005952 00000+0 18353-3 0 9998 2 58661 97.4521 12.8940 0007198 24.2481 335.9098 15.33957286150772 TIANMU-1 21 1 58662U 23208C 26255.29434035 .00007937 00000+0 22502-3 0 9991 2 58662 97.4587 15.9514 0006991 16.6116 343.5355 15.36498944150939 TIANMU-1 22 1 58663U 23208D 26255.29185569 .00005461 00000+0 17849-3 0 9995 2 58663 97.4574 12.0016 0004462 48.3539 311.8084 15.32147695150660 TIANMU-1 15 1 58700U 24004A 26255.31415495 .00004154 00000+0 15745-3 0 9990 2 58700 97.4667 81.5404 0008087 38.8873 321.2946 15.27424582149071 TIANMU-1 16 1 58701U 24004B 26255.29960253 .00003540 00000+0 13422-3 0 9993 2 58701 97.4618 80.7116 0007067 53.7711 306.4181 15.27529611149078 TIANMU-1 17 1 58702U 24004C 26255.28524794 .00003820 00000+0 14464-3 0 9997 2 58702 97.4644 81.2130 0006699 58.6462 301.5432 15.27524248149062 TIANMU-1 18 1 58703U 24004D 26255.33042689 .00004074 00000+0 15452-3 0 9992 2 58703 97.4660 81.5259 0005906 43.9741 316.1967 15.27423908149070 INSAT-3DS 1 58990U 24033A 26255.14400134 -.00000171 00000+0 00000+0 0 9998 2 58990 0.0430 256.0555 0001248 286.8631 302.1279 1.00273367 47944 METEOR-M2 4 1 59051U 24039A 26255.26654838 -.00000005 00000+0 17367-4 0 9993 2 59051 98.7110 213.5067 0005949 280.9553 79.0955 14.22437189131642 GOES 19 1 60133U 24119A 26255.27934830 -.00000263 00000+0 00000+0 0 9996 2 60133 0.0162 39.4431 0000515 218.0906 119.1266 1.00271312 7836 MTG-S1 1 64723U 25143A 26255.29416838 -.00000022 00000+0 00000+0 0 9991 2 64723 0.6243 340.0229 0003588 255.9958 220.9267 1.00270750 4291 METOP-SGA1 1 65159U 25172A 26255.17164058 .00000027 00000+0 32125-4 0 9990 2 65159 98.7083 313.2713 0000884 89.0718 271.0561 14.21502582 56144 FENGYUN 3H 1 65815U 25219A 26255.77110829 .00000019 00000+0 29353-4 0 9994 2 65815 98.6812 194.8515 0001291 102.7972 257.3348 14.19932485 49815